Location: Vancouver
(49.2827°N, 123.1207°W)
Time: 03:06:25
(UTC-07:00)

Tiangong - Visible Passes

Search period start: 21 May 2024 00:00
Search period end: 31 May 2024 00:00
Orbit: 372 x 375 km, 41.5° (Epoch: 20 May)

Date Brightness Start Highest point End Pass type
(mag) Time Alt. Az. Time Alt. Az. Time Alt. Az.
24 May 0.3 04:11:45 10° S 04:12:36 11° SSE 04:13:27 10° SE visible
26 May -0.1 03:41:00 13° S 03:41:22 13° SSE 03:42:59 10° SE visible
27 May -0.5 04:11:44 12° SW 04:13:32 18° S 04:15:46 10° SE visible
28 May -0.1 03:10:29 15° SSE 03:10:29 15° SSE 03:11:40 10° SE visible
29 May -0.6 03:41:05 18° SSW 03:41:39 19° S 03:43:57 10° SE visible
30 May -0.5 04:11:41 12° SW 04:13:29 17° S 04:15:39 10° SE visible
